Location: The Stocker AstroScience Center
(25.7579°N, 80.3725°W)
Time: 23:04:48
(UTC-05:00)

ISS - All Passes

Search period start: 04 March 2015 00:00
Search period end: 14 March 2015 01:00
Orbit: 394 x 406 km, 51.6° (Epoch: 04 March)

Date Brightness Start Highest point End Pass type
(mag) Time Alt. Az. Time Alt. Az. Time Alt. Az.
04 Mar - 06:38:03 10° S 06:40:15 18° SE 06:42:31 10° E daylight
04 Mar - 08:13:57 10° W 08:16:32 22° NW 08:19:05 10° N daylight
04 Mar - 16:23:04 10° NW 16:26:16 80° SW 16:29:29 10° SE daylight
05 Mar - 07:19:42 10° SW 07:22:51 51° NW 07:26:00 10° NNE daylight
05 Mar - 15:29:37 10° NNW 15:32:37 37° NE 15:35:39 10° ESE daylight
06 Mar - 06:26:00 10° SSW 06:29:09 55° SE 06:32:19 10° NE daylight
06 Mar - 14:36:34 10° N 14:38:43 17° NE 14:40:55 10° E daylight
06 Mar - 16:12:24 10° WNW 16:15:05 24° SW 16:17:42 10° S daylight
07 Mar - 05:32:55 10° S 05:35:22 21° SE 05:37:54 10° ENE visible
07 Mar - 07:09:16 10° W 07:11:41 19° NW 07:14:02 10° N daylight
07 Mar - 15:18:04 10° NW 15:21:14 65° SW 15:24:25 10° SSE daylight
08 Mar - 07:14:28 10° WSW 07:17:34 43° NW 07:20:38 10° NNE visible
08 Mar - 15:24:07 10° NNW 15:27:11 43° NE 15:30:15 10° ESE daylight
09 Mar - 06:20:14 10° SSW 06:23:25 66° SE 06:26:36 10° NE visible
09 Mar - 14:30:32 10° N 14:32:53 19° NE 14:35:16 10° E daylight
09 Mar - 16:06:40 10° WNW 16:09:10 21° SW 16:11:36 10° S daylight
10 Mar - 05:26:35 10° S 05:29:12 24° SE 05:31:53 10° ENE visible
10 Mar - 07:03:18 10° W 07:05:32 17° NW 07:07:42 10° N visible
10 Mar - 15:11:46 10° NW 15:14:55 56° SW 15:18:03 10° SSE daylight
11 Mar - 06:07:56 10° WSW 06:10:58 38° NW 06:13:59 10° NNE visible
11 Mar - 14:17:20 10° NNW 14:20:27 49° NE 14:23:34 10° ESE daylight
12 Mar - 05:13:11 10° SW 05:16:23 75° SE 05:19:36 10° NE visible
12 Mar - 13:23:17 10° N 13:25:44 20° NE 13:28:14 10° E daylight
12 Mar - 14:59:36 10° W 15:01:58 19° SW 15:04:15 10° S daylight
13 Mar - 04:19:02 10° S 04:21:45 26° SE 04:24:31 10° ENE night (unlit)
13 Mar - 05:56:00 10° W 05:58:05 16° NW 06:00:06 10° N visible
13 Mar - 14:04:11 10° NW 14:07:18 50° SW 14:10:23 10° SSE daylight
